,,Stat6,,Stat2,,Stat8,,Stat9,,Stat10,,Wind1,,Wind1,
time,status,PA1M_AVG,status,PR1M_SUM,status,RH1M_AVG,status,SR1M_AVG,status,TA1M_AVG,status,W1dAve1m,status,W1sAve1m,
2004-07-15, 00:00:01,VALID,917.194,VALID,0,VALID,98.0674,VALID,-0.0169808,VALID,19.4647,VALID,125,VALID,1.7847,
2004-07-15, 00:01:00,VALID,917.203,VALID,0,VALID,98.0026,VALID,0,VALID,19.4781,VALID,130,VALID,1.46391,
2004-07-15, 00:02:01,VALID,917.183,VALID,0,VALID,97.9453,VALID,0,VALID,19.4742,VALID,124,VALID,2.04492,
2004-07-15, 00:03:00,VALID,917.174,VALID,0,VALID,97.7953,VALID,0,VALID,19.4973,VALID,116,VALID,2.10045,
2004-07-15, 00:04:01,VALID,917.183,VALID,0,VALID,97.7457,VALID,0,VALID,19.4968,VALID,114,VALID,1.35102,
2004-07-15, 00:05:00,VALID,917.172,VALID,0,VALID,97.5982,VALID,-0.0339617,VALID,19.4965,VALID,118,VALID,2.44624,
2004-07-15, 00:06:01,VALID,917.184,VALID,0,VALID,97.4927,VALID,-0.0169808,VALID,19.503,VALID,119,VALID,1.40412,
2004-07-15, 00:07:01,VALID,917.178,VALID,0,VALID,97.4736,VALID,-0.0169808,VALID,19.5164,VALID,131,VALID,1.8919,
2004-07-15, 00:08:00,VALID,917.175,VALID,0,VALID,97.4443,VALID,-0.0169808,VALID,19.5229,VALID,108,VALID,1.60136,
2004-07-15, 00:09:00,VALID,917.18,VALID,0,VALID,97.4952,VALID,0,VALID,19.5159,VALID,132,VALID,1.56977,
2004-07-15, 00:10:00,VALID,917.161,VALID,0,VALID,97.5321,VALID,0,VALID,19.5162,VALID,131,VALID,1.89844,
2004-07-15, 00:11:00,VALID,917.149,VALID,0,VALID,97.5791,VALID,0,VALID,19.5067,VALID,143,VALID,1.95721,
2004-07-15, 00:12:00,VALID,917.135,VALID,0,VALID,97.6338,VALID,0,VALID,19.5035,VALID,143,VALID,1.70934,
2004-07-15, 00:13:01,VALID,917.128,VALID,0,VALID,97.7292,VALID,0,VALID,19.4941,VALID,144,VALID,1.88372,
2004-07-15, 00:14:00,VALID,917.116,VALID,0,VALID,97.8487,VALID,0,VALID,19.4866,VALID,138,VALID,1.64234,
2004-07-15, 00:15:00,VALID,917.102,VALID,0,VALID,97.8563,VALID,0,VALID,19.4777,VALID,140,VALID,2.38396,
2004-07-15, 00:16:01,VALID,917.094,VALID,0,VALID,97.8805,VALID,-0.0169808,VALID,19.4712,VALID,143,VALID,2.07347,
2004-07-15, 00:17:01,VALID,917.08,VALID,0,VALID,97.8894,VALID,0,VALID,19.4777,VALID,146,VALID,2.3668,
2004-07-15, 00:18:01,VALID,917.079,VALID,0,VALID,97.8322,VALID,0,VALID,19.4777,VALID,150,VALID,2.57344,
2004-07-15, 00:19:00,VALID,917.053,VALID,0,VALID,97.7279,VALID,0,VALID,19.4943,VALID,151,VALID,2.33576,
2004-07-15, 00:20:01,VALID,917.052,VALID,0,VALID,97.7139,VALID,0.0169808,VALID,19.5,VALID,140,VALID,2.55344,
2004-07-15, 00:21:00,VALID,917.045,VALID,0,VALID,97.663,VALID,-0.0169808,VALID,19.5102,VALID,147,VALID,2.16101,
2004-07-15, 00:22:00,VALID,917.045,VALID,0,VALID,97.6287,VALID,0,VALID,19.5204,VALID,137,VALID,2.20912,
2004-07-15, 00:23:00,VALID,917.033,VALID,0,VALID,97.5995,VALID,0,VALID,19.5261,VALID,140,VALID,2.83993,
2004-07-15, 00:24:01,VALID,917.05,VALID,0,VALID,97.5232,VALID,0,VALID,19.5395,VALID,140,VALID,2.34126,
2004-07-15, 00:25:01,VALID,917.03,VALID,0,VALID,97.5321,VALID,0,VALID,19.5422,VALID,135,VALID,2.18241,
2004-07-15, 00:26:01,VALID,917.028,VALID,0,VALID,97.4965,VALID,0.0169808,VALID,19.5487,VALID,144,VALID,2.20876,
2004-07-15, 00:27:01,VALID,917.022,VALID,0,VALID,97.5054,VALID,0,VALID,19.542,VALID,143,VALID,1.84045,
2004-07-15, 00:28:00,VALID,917.025,VALID,0,VALID,97.2917,VALID,-0.0169808,VALID,19.5485,VALID,134,VALID,2.49006,
2004-07-15, 00:29:00,VALID,917.037,VALID,0,VALID,97.1671,VALID,0,VALID,19.5646,VALID,138,VALID,2.05305,
2004-07-15, 00:30:00,VALID,917.042,VALID,0,VALID,97.1658,VALID,-0.0169808,VALID,19.577,VALID,146,VALID,2.01672,
2004-07-15, 00:31:01,VALID,917.028,VALID,0,VALID,97.2777,VALID,0,VALID,19.5807,VALID,150,VALID,1.71858,
2004-07-15, 00:32:01,VALID,917.029,VALID,0,VALID,97.3375,VALID,0.0169808,VALID,19.5706,VALID,134,VALID,2.77195,
2004-07-15, 00:33:00,VALID,917.025,VALID,0,VALID,97.335,VALID,0.0169808,VALID,19.5644,VALID,143,VALID,3.14691,
2004-07-15, 00:34:00,VALID,917.044,VALID,0,VALID,97.3718,VALID,0.0169808,VALID,19.5671,VALID,149,VALID,2.44313,
2004-07-15, 00:35:00,VALID,917.038,VALID,0,VALID,97.4342,VALID,0,VALID,19.574,VALID,137,VALID,2.67057,
2004-07-15, 00:36:01,VALID,917.027,VALID,0,VALID,97.5308,VALID,0.0169808,VALID,19.5681,VALID,147,VALID,2.19513,
2004-07-15, 00:37:00,VALID,917.024,VALID,0,VALID,97.6465,VALID,0.0169808,VALID,19.5549,VALID,132,VALID,2.65879,
2004-07-15, 00:38:00,VALID,917.018,VALID,0,VALID,97.7622,VALID,0,VALID,19.536,VALID,128,VALID,1.99183,
2004-07-15, 00:39:00,VALID,917.012,VALID,0,VALID,97.8563,VALID,0,VALID,19.5124,VALID,120,VALID,1.61465,
2004-07-15, 00:40:01,VALID,917.011,VALID,0,VALID,97.8856,VALID,0.0169808,VALID,19.5097,VALID,129,VALID,2.02397,
2004-07-15, 00:41:00,VALID,916.998,VALID,0,VALID,97.8296,VALID,0,VALID,19.4995,VALID,135,VALID,2.60361,
2004-07-15, 00:42:01,VALID,916.993,VALID,0,VALID,97.8106,VALID,0,VALID,19.4963,VALID,118,VALID,2.32191,
2004-07-15, 00:43:00,VALID,916.989,VALID,0,VALID,97.8398,VALID,0,VALID,19.4963,VALID,124,VALID,2.04397,
2004-07-15, 00:44:00,VALID,916.972,VALID,0,VALID,97.7978,VALID,0.0339617,VALID,19.4936,VALID,120,VALID,1.92951,
2004-07-15, 00:45:01,VALID,916.972,VALID,0,VALID,97.6834,VALID,0,VALID,19.5032,VALID,127,VALID,2.25426,
2004-07-15, 00:46:00,VALID,916.976,VALID,0,VALID,97.6427,VALID,0.0169808,VALID,19.5065,VALID,121,VALID,1.5343,
2004-07-15, 00:47:00,VALID,916.951,VALID,0,VALID,97.5664,VALID,0,VALID,19.5097,VALID,137,VALID,2.72303,
2004-07-15, 00:48:01,VALID,916.955,VALID,0,VALID,97.3159,VALID,0.0169808,VALID,19.509,VALID,92,VALID,2.35423,
2004-07-15, 00:49:00,VALID,916.955,VALID,0,VALID,97.2434,VALID,0,VALID,19.5259,VALID,118,VALID,2.19034,
2004-07-15, 00:50:01,VALID,916.952,VALID,0,VALID,97.0832,VALID,0,VALID,19.5549,VALID,110,VALID,1.46191,
2004-07-15, 00:51:00,VALID,916.949,VALID,0,VALID,97.0857,VALID,0,VALID,19.5577,VALID,69,VALID,1.26563,
2004-07-15, 00:52:01,VALID,916.948,VALID,0,VALID,97.0807,VALID,0.0169808,VALID,19.5577,VALID,130,VALID,1.82272,
2004-07-15, 00:53:01,VALID,916.938,VALID,0,VALID,96.998,VALID,0,VALID,19.5681,VALID,128,VALID,1.60575,
2004-07-15, 00:54:01,VALID,916.939,VALID,0,VALID,97.0527,VALID,0,VALID,19.5678,VALID,71,VALID,0.636719,
2004-07-15, 00:55:00,VALID,916.924,VALID,0,VALID,97.115,VALID,0.0169808,VALID,19.5547,VALID,110,VALID,0.630504,
2004-07-15, 00:56:01,VALID,916.922,VALID,0,VALID,97.1697,VALID,0,VALID,19.5619,VALID,121,VALID,1.18108,
2004-07-15, 00:57:00,VALID,916.909,VALID,0,VALID,97.2345,VALID,0,VALID,19.5358,VALID,118,VALID,0.973404,
2004-07-15, 00:58:01,VALID,916.915,VALID,0,VALID,97.3108,VALID,0.0169808,VALID,19.5328,VALID,128,VALID,0.911328,
2004-07-15, 00:59:01,VALID,916.903,VALID,0,VALID,97.2994,VALID,0.0169808,VALID,19.5065,VALID,110,VALID,0.975836,
2004-07-15, 01:00:01,VALID,916.907,VALID,0,VALID,97.2434,VALID,0,VALID,19.5062,VALID,102,VALID,0.868902,
2004-07-15, 01:01:01,VALID,916.898,VALID,0,VALID,97.2358,VALID,0.0169808,VALID,19.5194,VALID,107,VALID,0.663154,
2004-07-15, 01:02:01,VALID,916.893,VALID,0,VALID,97.2968,VALID,0,VALID,19.5095,VALID,95,VALID,0.696023,
2004-07-15, 01:03:01,VALID,916.88,VALID,0,VALID,97.368,VALID,-0.0169808,VALID,19.4968,VALID,138,VALID,0.788707,
2004-07-15, 01:04:00,VALID,916.876,VALID,0,VALID,97.4392,VALID,0,VALID,19.4836,VALID,125,VALID,0.859561,
2004-07-15, 01:05:00,VALID,916.869,VALID,0,VALID,97.5181,VALID,0,VALID,19.4908,VALID,130,VALID,0.834121,
2004-07-15, 01:06:01,VALID,916.868,VALID,0,VALID,97.5995,VALID,0.0169808,VALID,19.4643,VALID,136,VALID,1.08365,
2004-07-15, 01:07:00,VALID,916.871,VALID,0,VALID,97.6859,VALID,0,VALID,19.459,VALID,109,VALID,0.653201,
2004-07-15, 01:08:01,VALID,916.85,VALID,0,VALID,97.8449,VALID,-0.0509425,VALID,19.427,VALID,49,VALID,0.419531,
2004-07-15, 01:09:01,VALID,916.856,VALID,0,VALID,98.0051,VALID,-0.0509425,VALID,19.4106,VALID,18,VALID,0.875174,
2004-07-15, 01:10:01,VALID,916.848,VALID,0,VALID,98.131,VALID,-0.0169808,VALID,19.3818,VALID,30,VALID,1.13039,
2004-07-15, 01:11:01,VALID,916.829,VALID,0,VALID,98.262,VALID,-0.0679233,VALID,19.3594,VALID,37,VALID,0.469658,
2004-07-15, 01:12:01,VALID,916.822,VALID,0,VALID,98.3713,VALID,-0.0509425,VALID,19.3363,VALID,38,VALID,0.292791,
2004-07-15, 01:13:01,VALID,916.814,VALID,0,VALID,98.4603,VALID,-0.0509425,VALID,19.3172,VALID,54,VALID,0.748365,
2004-07-15, 01:14:01,VALID,916.799,VALID,0,VALID,98.5557,VALID,-0.0169808,VALID,19.3107,VALID,66,VALID,0.532738,
2004-07-15, 01:15:01,VALID,916.788,VALID,0,VALID,98.5989,VALID,-0.0339617,VALID,19.2844,VALID,90,VALID,0.650568,
2004-07-15, 01:16:01,VALID,916.776,VALID,0,VALID,98.6778,VALID,-0.0339617,VALID,19.2752,VALID,103,VALID,0.594105,
2004-07-15, 01:17:01,VALID,916.761,VALID,0,VALID,98.7693,VALID,-0.0679233,VALID,19.2625,VALID,105,VALID,0.488839,
2004-07-15, 01:18:01,VALID,916.741,VALID,0,VALID,98.8024,VALID,-0.0169808,VALID,19.262,VALID,106,VALID,0.361979,
2004-07-15, 01:19:01,VALID,916.748,VALID,0,VALID,98.8316,VALID,-0.0509425,VALID,19.2561,VALID,137,VALID,0.627604,
2004-07-15, 01:20:01,VALID,916.722,VALID,0,VALID,98.8927,VALID,-0.0509425,VALID,19.2427,VALID,142,VALID,0.564258,
2004-07-15, 01:21:01,VALID,916.707,VALID,0,VALID,98.9245,VALID,-0.0679233,VALID,19.2397,VALID,138,VALID,0.536458,
2004-07-15, 01:22:01,VALID,916.678,VALID,0,VALID,98.9563,VALID,-0.0339617,VALID,19.23,VALID,138,VALID,0.70141,
2004-07-15, 01:23:01,VALID,916.66,VALID,0,VALID,98.9664,VALID,-0.0679233,VALID,19.2134,VALID,141,VALID,0.603051,
2004-07-15, 01:24:01,VALID,916.646,VALID,0,VALID,98.9537,VALID,-0.0679233,VALID,19.2007,VALID,146,VALID,0.59189,
2004-07-15, 01:25:01,VALID,916.63,VALID,0,VALID,98.9372,VALID,-0.0509425,VALID,19.2042,VALID,139,VALID,0.518973,
2004-07-15, 01:26:01,VALID,916.612,VALID,0,VALID,98.9258,VALID,-0.0509425,VALID,19.2109,VALID,139,VALID,0.690163,
2004-07-15, 01:27:01,VALID,916.599,VALID,0,VALID,98.9092,VALID,-0.0679233,VALID,19.2007,VALID,160,VALID,0.862571,
2004-07-15, 01:28:01,VALID,916.585,VALID,0,VALID,98.8418,VALID,-0.0849042,VALID,19.2307,VALID,138,VALID,0.791193,
2004-07-15, 01:29:01,VALID,916.56,VALID,0,VALID,98.8075,VALID,-0.0679233,VALID,19.2265,VALID,145,VALID,0.558036,
2004-07-15, 01:30:01,VALID,916.547,VALID,0,VALID,98.7986,VALID,-0.0509425,VALID,19.2196,VALID,123,VALID,0.266622,
2004-07-15, 01:31:01,VALID,916.546,VALID,0,VALID,98.838,VALID,-0.0339617,VALID,19.2337,VALID,162,VALID,0.518229,
2004-07-15, 01:32:00,VALID,916.539,VALID,0,VALID,98.8367,VALID,-0.0339617,VALID,19.2268,VALID,158,VALID,0.770349,
2004-07-15, 01:33:00,VALID,916.524,VALID,0,VALID,98.7528,VALID,-0.0509425,VALID,19.233,VALID,128,VALID,1.06994,
2004-07-15, 01:34:00,VALID,916.526,VALID,0,VALID,98.5837,VALID,-0.0849042,VALID,19.2655,VALID,121,VALID,1.03848,
2004-07-15, 01:35:00,VALID,916.523,VALID,0,VALID,98.3662,VALID,-0.0509425,VALID,19.2951,VALID,130,VALID,0.98473,
2004-07-15, 01:36:00,VALID,916.523,VALID,0,VALID,98.1056,VALID,-0.0679233,VALID,19.3303,VALID,109,VALID,1.0209,
2004-07-15, 01:37:00,VALID,916.528,VALID,0,VALID,97.8983,VALID,-0.0679233,VALID,19.3691,VALID,105,VALID,1.17839,
2004-07-15, 01:38:00,VALID,916.52,VALID,0,VALID,97.5956,VALID,-0.0849042,VALID,19.3917,VALID,117,VALID,1.1669,
2004-07-15, 01:39:00,VALID,916.518,VALID,0,VALID,97.3808,VALID,-0.0509425,VALID,19.4237,VALID,116,VALID,1.03296,
2004-07-15, 01:40:00,VALID,916.491,VALID,0,VALID,97.2104,VALID,-0.0679233,VALID,19.4531,VALID,118,VALID,1.09629,
2004-07-15, 01:41:00,VALID,916.473,VALID,0,VALID,97.0387,VALID,-0.0849042,VALID,19.469,VALID,113,VALID,1.17492,
2004-07-15, 01:42:00,VALID,916.44,VALID,0,VALID,96.9331,VALID,-0.0169808,VALID,19.4786,VALID,117,VALID,1.10392,
2004-07-15, 01:43:00,VALID,916.414,VALID,0,VALID,96.8836,VALID,-0.0169808,VALID,19.4948,VALID,130,VALID,1.45522,
2004-07-15, 01:44:00,VALID,916.38,VALID,0,VALID,96.8467,VALID,-0.0509425,VALID,19.4908,VALID,141,VALID,2.03049,
2004-07-15, 01:45:00,VALID,916.362,VALID,0,VALID,96.82,VALID,-0.0509425,VALID,19.495,VALID,149,VALID,1.82535,
2004-07-15, 01:46:00,VALID,916.331,VALID,0,VALID,96.7805,VALID,-0.0339617,VALID,19.505,VALID,148,VALID,1.76875,
2004-07-15, 01:47:00,VALID,916.314,VALID,0,VALID,96.8797,VALID,-0.0509425,VALID,19.4846,VALID,149,VALID,1.73819,
2004-07-15, 01:48:00,VALID,916.282,VALID,0,VALID,96.9916,VALID,-0.0679233,VALID,19.4754,VALID,157,VALID,1.73896,
2004-07-15, 01:49:00,VALID,916.26,VALID,0,VALID,97.0425,VALID,-0.0169808,VALID,19.4434,VALID,154,VALID,1.6061,
2004-07-15, 01:50:00,VALID,916.247,VALID,0,VALID,97.2599,VALID,-0.0169808,VALID,19.4339,VALID,153,VALID,1.49507,
2004-07-15, 01:51:00,VALID,916.232,VALID,0,VALID,97.4774,VALID,0,VALID,19.3818,VALID,152,VALID,1.60309,
2004-07-15, 01:52:00,VALID,916.216,VALID,0,VALID,97.7737,VALID,0,VALID,19.3515,VALID,148,VALID,1.71992,
2004-07-15, 01:53:00,VALID,916.195,VALID,0,VALID,98.0433,VALID,0.0339617,VALID,19.3259,VALID,148,VALID,1.39916,
2004-07-15, 01:54:00,VALID,916.192,VALID,0,VALID,98.2798,VALID,0.0169808,VALID,19.2867,VALID,153,VALID,1.3641,
2004-07-15, 01:55:00,VALID,916.182,VALID,0,VALID,98.4832,VALID,0.0339617,VALID,19.2613,VALID,153,VALID,1.36838,
2004-07-15, 01:56:00,VALID,916.178,VALID,0,VALID,98.6752,VALID,0,VALID,19.236,VALID,157,VALID,1.93837,
2004-07-15, 01:57:00,VALID,916.166,VALID,0,VALID,98.8533,VALID,0,VALID,19.2032,VALID,157,VALID,1.38572,
2004-07-15, 01:58:00,VALID,916.182,VALID,0,VALID,98.9906,VALID,0,VALID,19.1674,VALID,153,VALID,1.10528,
2004-07-15, 01:59:00,VALID,916.192,VALID,0,VALID,99.0745,VALID,0.0509425,VALID,19.1543,VALID,153,VALID,0.738368,
2004-07-15, 02:00:00,VALID,916.191,VALID,0,VALID,99.1394,VALID,0.0339617,VALID,19.1349,VALID,154,VALID,0.800872,
2004-07-15, 02:01:00,VALID,916.182,VALID,0,VALID,99.1953,VALID,0,VALID,19.1227,VALID,164,VALID,0.510156,
2004-07-15, 02:02:00,VALID,916.163,VALID,0,VALID,99.2195,VALID,0.0169808,VALID,19.113,VALID,180,VALID,0.576982,
2004-07-15, 02:03:00,VALID,916.149,VALID,0,VALID,99.2678,VALID,0,VALID,19.0966,VALID,205,VALID,0.557546,
2004-07-15, 02:04:00,VALID,916.135,VALID,0,VALID,99.2576,VALID,0,VALID,19.1068,VALID,225,VALID,0.587536,
2004-07-15, 02:05:00,VALID,916.141,VALID,0,VALID,99.2309,VALID,0.0169808,VALID,19.1033,VALID,243,VALID,0.394965,
2004-07-15, 02:06:00,VALID,916.152,VALID,0,VALID,99.2195,VALID,0,VALID,19.0865,VALID,242,VALID,0.150073,
2004-07-15, 02:07:00,VALID,916.157,VALID,0,VALID,99.2119,VALID,0,VALID,19.0937,VALID,242,VALID,0,
2004-07-15, 02:08:00,VALID,916.15,VALID,0,VALID,99.2208,VALID,0,VALID,19.0807,VALID,242,VALID,0,
2004-07-15, 02:09:00,VALID,916.147,VALID,0,VALID,99.2233,VALID,0,VALID,19.0445,VALID,242,VALID,0,
2004-07-15, 02:10:00,VALID,916.139,VALID,0,VALID,99.278,VALID,0.0169808,VALID,19.045,VALID,242,VALID,0,
2004-07-15, 02:11:00,VALID,916.133,VALID,0,VALID,99.2742,VALID,0.0509425,VALID,19.0189,VALID,242,VALID,0,
2004-07-15, 02:12:00,VALID,916.128,VALID,0,VALID,99.2882,VALID,0,VALID,19.0025,VALID,242,VALID,0.213415,
2004-07-15, 02:13:00,VALID,916.13,VALID,0,VALID,99.3009,VALID,0.0169808,VALID,18.9903,VALID,242,VALID,0.0830305,
2004-07-15, 02:14:00,VALID,916.115,VALID,0,VALID,99.3632,VALID,0.0169808,VALID,18.968,VALID,242,VALID,0.061899,
2004-07-15, 02:15:00,VALID,916.109,VALID,0,VALID,99.4268,VALID,0.0169808,VALID,18.9447,VALID,242,VALID,0.120754,
2004-07-15, 02:16:00,VALID,916.108,VALID,0,VALID,99.4369,VALID,0,VALID,18.9188,VALID,242,VALID,0,
2004-07-15, 02:17:00,VALID,916.101,VALID,0,VALID,99.4191,VALID,0,VALID,18.8932,VALID,242,VALID,0,
2004-07-15, 02:18:00,VALID,916.115,VALID,0,VALID,99.4293,VALID,0,VALID,18.8542,VALID,242,VALID,0,
2004-07-15, 02:19:00,VALID,916.105,VALID,0,VALID,99.4179,VALID,0.0169808,VALID,18.8222,VALID,242,VALID,0,
2004-07-15, 02:20:00,VALID,916.084,VALID,0,VALID,99.4713,VALID,0,VALID,18.7998,VALID,242,VALID,0.0424107,
2004-07-15, 02:21:00,VALID,916.072,VALID,0,VALID,99.6124,VALID,0.0169808,VALID,18.7931,VALID,242,VALID,0.184482,
2004-07-15, 02:22:00,VALID,916.072,VALID,0,VALID,99.6099,VALID,0,VALID,18.777,VALID,242,VALID,0.244922,
2004-07-15, 02:23:00,VALID,916.066,VALID,0,VALID,99.5832,VALID,0.0169808,VALID,18.7482,VALID,188,VALID,0.434956,
2004-07-15, 02:24:00,VALID,916.065,VALID,0,VALID,99.69,VALID,0.0169808,VALID,18.7189,VALID,132,VALID,0.800409,
2004-07-15, 02:25:00,VALID,916.062,VALID,0,VALID,99.8413,VALID,0.0169808,VALID,18.7127,VALID,138,VALID,0.799924,
2004-07-15, 02:26:00,VALID,916.057,VALID,0,VALID,99.8858,VALID,0,VALID,18.6968,VALID,131,VALID,0.727431,
2004-07-15, 02:27:00,VALID,916.047,VALID,0,VALID,99.9929,VALID,0.0169808,VALID,18.6769,VALID,126,VALID,0.758903,
2004-07-15, 02:28:00,VALID,916.014,VALID,0,VALID,100,VALID,0,VALID,18.6935,VALID,119,VALID,0.834077,
2004-07-15, 02:29:00,VALID,916.008,VALID,0,VALID,100,VALID,0.0169808,VALID,18.6931,VALID,85,VALID,0.403963,
2004-07-15, 02:30:00,VALID,915.978,VALID,0,VALID,100,VALID,0.0169808,VALID,18.6769,VALID,136,VALID,1.0645,
2004-07-15, 02:31:00,VALID,915.945,VALID,0,VALID,100,VALID,0,VALID,18.7097,VALID,140,VALID,0.981424,
2004-07-15, 02:32:00,VALID,915.931,VALID,0,VALID,100,VALID,0.0169808,VALID,18.7226,VALID,145,VALID,1.32592,
2004-07-15, 02:33:00,VALID,915.909,VALID,0,VALID,100,VALID,0.0169808,VALID,18.7288,VALID,150,VALID,1.04403,
2004-07-15, 02:34:00,VALID,915.895,VALID,0,VALID,100,VALID,0,VALID,18.7383,VALID,144,VALID,0.870833,
2004-07-15, 02:35:00,VALID,915.871,VALID,0,VALID,100,VALID,0.0509425,VALID,18.7415,VALID,158,VALID,0.673118,
2004-07-15, 02:36:00,VALID,915.853,VALID,0,VALID,100,VALID,0.0339617,VALID,18.7514,VALID,156,VALID,0.440549,
2004-07-15, 02:37:00,VALID,915.839,VALID,0,VALID,100,VALID,0.0509425,VALID,18.7417,VALID,156,VALID,0.418155,
2004-07-15, 02:38:00,VALID,915.833,VALID,0,VALID,100,VALID,0.0339617,VALID,18.7514,VALID,174,VALID,0.588778,
2004-07-15, 02:39:00,VALID,915.835,VALID,0,VALID,100,VALID,0,VALID,18.7646,VALID,168,VALID,0.748001,
2004-07-15, 02:40:00,VALID,915.83,VALID,0,VALID,100,VALID,0,VALID,18.777,VALID,176,VALID,0.959375,
2004-07-15, 02:41:00,VALID,915.822,VALID,0,VALID,100,VALID,0.0679233,VALID,18.8031,VALID,156,VALID,0.483132,
2004-07-15, 02:42:00,VALID,915.82,VALID,0,VALID,100,VALID,-0.0169808,VALID,18.8028,VALID,124,VALID,0.695884,
2004-07-15, 02:43:00,VALID,915.812,VALID,0,VALID,99.8706,VALID,0,VALID,18.7807,VALID,148,VALID,0.973514,
2004-07-15, 02:44:00,VALID,915.821,VALID,0,VALID,99.7777,VALID,-0.0169808,VALID,18.7516,VALID,141,VALID,1.06417,
2004-07-15, 02:45:00,VALID,915.811,VALID,0,VALID,99.8311,VALID,0,VALID,18.7226,VALID,139,VALID,1.27288,
2004-07-15, 02:46:00,VALID,915.804,VALID,0,VALID,99.7841,VALID,0.0169808,VALID,18.7027,VALID,126,VALID,0.762649,
2004-07-15, 02:47:00,VALID,915.783,VALID,0,VALID,99.7256,VALID,0,VALID,18.6938,VALID,141,VALID,0.992383,
2004-07-15, 02:48:00,VALID,915.779,VALID,0,VALID,99.7358,VALID,0,VALID,18.6841,VALID,158,VALID,0.715021,
2004-07-15, 02:49:00,VALID,915.759,VALID,0,VALID,99.7892,VALID,0,VALID,18.6836,VALID,142,VALID,0.890811,
2004-07-15, 02:50:00,VALID,915.749,VALID,0,VALID,99.7116,VALID,0,VALID,18.694,VALID,114,VALID,0.778392,
2004-07-15, 02:51:00,VALID,915.742,VALID,0,VALID,99.7345,VALID,0.0169808,VALID,18.697,VALID,170,VALID,0.591751,
2004-07-15, 02:52:00,VALID,915.73,VALID,0,VALID,99.6442,VALID,0,VALID,18.6905,VALID,146,VALID,0.335211,
2004-07-15, 02:53:00,VALID,915.741,VALID,0,VALID,99.718,VALID,0,VALID,18.6838,VALID,128,VALID,0.989826,
2004-07-15, 02:54:00,VALID,915.73,VALID,0,VALID,99.6887,VALID,0.0339617,VALID,18.6806,VALID,108,VALID,0.527604,
2004-07-15, 02:55:00,VALID,915.74,VALID,0,VALID,99.6353,VALID,0.0339617,VALID,18.661,VALID,107,VALID,0.0541295,
2004-07-15, 02:56:00,VALID,915.751,VALID,0,VALID,99.5959,VALID,0.0509425,VALID,18.6317,VALID,107,VALID,0.0374645,
2004-07-15, 02:57:00,VALID,915.767,VALID,0,VALID,99.5704,VALID,0.0169808,VALID,18.6101,VALID,107,VALID,0.106027,
2004-07-15, 02:58:00,VALID,915.783,VALID,0,VALID,99.587,VALID,0,VALID,18.5676,VALID,107,VALID,0.112537,
2004-07-15, 02:59:00,VALID,915.792,VALID,0,VALID,99.6162,VALID,0.0169808,VALID,18.5487,VALID,107,VALID,0.134673,
2004-07-15, 03:00:00,VALID,915.791,VALID,0,VALID,99.704,VALID,0.0339617,VALID,18.5356,VALID,108,VALID,0.358422,
2004-07-15, 03:01:00,VALID,915.808,VALID,0,VALID,99.8235,VALID,0.0169808,VALID,18.5259,VALID,109,VALID,0.242551,
2004-07-15, 03:02:00,VALID,915.799,VALID,0,VALID,99.8884,VALID,0.0169808,VALID,18.516,VALID,109,VALID,0.153201,
2004-07-15, 03:03:00,VALID,915.8,VALID,0,VALID,99.9189,VALID,0,VALID,18.513,VALID,109,VALID,0.00111607,
2004-07-15, 03:04:00,VALID,915.798,VALID,0,VALID,99.8667,VALID,0,VALID,18.4837,VALID,109,VALID,0.174782,
2004-07-15, 03:05:00,VALID,915.776,VALID,0,VALID,99.7688,VALID,0.0339617,VALID,18.4258,VALID,107,VALID,0.481001,
2004-07-15, 03:06:00,VALID,915.768,VALID,0,VALID,99.8527,VALID,0.0169808,VALID,18.3965,VALID,107,VALID,0.268229,
2004-07-15, 03:07:00,VALID,915.755,VALID,0,VALID,99.9112,VALID,-0.0339617,VALID,18.3751,VALID,107,VALID,0.275856,
2004-07-15, 03:08:00,VALID,915.732,VALID,0,VALID,99.9695,VALID,-0.0849042,VALID,18.3463,VALID,106,VALID,0.229167,
2004-07-15, 03:09:00,VALID,915.708,VALID,0,VALID,99.9903,VALID,-0.0679233,VALID,18.3204,VALID,94,VALID,0.609561,
2004-07-15, 03:10:00,VALID,915.675,VALID,0,VALID,100,VALID,-0.0849042,VALID,18.3172,VALID,111,VALID,0.416319,
2004-07-15, 03:11:00,VALID,915.653,VALID,0,VALID,99.9929,VALID,-0.0849042,VALID,18.2948,VALID,80,VALID,0.56686,
2004-07-15, 03:12:00,VALID,915.64,VALID,0,VALID,99.9428,VALID,-0.101885,VALID,18.24,VALID,53,VALID,0.674653,
2004-07-15, 03:13:00,VALID,915.615,VALID,0,VALID,100,VALID,-0.0509425,VALID,18.2469,VALID,66,VALID,0.680414,
2004-07-15, 03:14:00,VALID,915.608,VALID,0,VALID,100,VALID,-0.0679233,VALID,18.2469,VALID,46,VALID,1.04407,
2004-07-15, 03:15:00,VALID,915.595,VALID,0,VALID,100,VALID,-0.0679233,VALID,18.2531,VALID,43,VALID,1.06631,
2004-07-15, 03:16:00,VALID,915.616,VALID,0,VALID,100,VALID,-0.0679233,VALID,18.302,VALID,59,VALID,0.687691,
2004-07-15, 03:17:00,VALID,915.6,VALID,0,VALID,100,VALID,-0.101885,VALID,18.3274,VALID,85,VALID,0.569568,
2004-07-15, 03:18:00,VALID,915.593,VALID,0,VALID,100,VALID,-0.101885,VALID,18.3696,VALID,75,VALID,0.459077,
2004-07-15, 03:19:00,VALID,915.581,VALID,0,VALID,100,VALID,-0.0849042,VALID,18.3592,VALID,74,VALID,0.223785,
2004-07-15, 03:20:00,VALID,915.565,VALID,0,VALID,100,VALID,-0.0849042,VALID,18.3792,VALID,127,VALID,0.317894,
2004-07-15, 03:21:00,VALID,915.565,VALID,0,VALID,100,VALID,-0.101885,VALID,18.3728,VALID,158,VALID,0.971094,
2004-07-15, 03:22:00,VALID,915.546,VALID,0,VALID,100,VALID,0,VALID,18.3813,VALID,155,VALID,0.884766,
2004-07-15, 03:23:00,VALID,915.522,VALID,0,VALID,100,VALID,0.0169808,VALID,18.3873,VALID,166,VALID,0.719308,
2004-07-15, 03:24:00,VALID,915.495,VALID,0,VALID,100,VALID,0,VALID,18.403,VALID,153,VALID,0.550881,
2004-07-15, 03:25:00,VALID,915.483,VALID,0,VALID,100,VALID,0.0169808,VALID,18.4267,VALID,177,VALID,0.516927,
2004-07-15, 03:26:00,VALID,915.461,VALID,0,VALID,100,VALID,0.0169808,VALID,18.4104,VALID,161,VALID,0.821987,
2004-07-15, 03:27:00,VALID,915.444,VALID,0,VALID,99.9728,VALID,0.0339617,VALID,18.3905,VALID,158,VALID,0.420201,
2004-07-15, 03:28:00,VALID,915.412,VALID,0,VALID,99.8756,VALID,0,VALID,18.3682,VALID,159,VALID,0.539418,
2004-07-15, 03:29:00,VALID,915.39,VALID,0,VALID,99.8197,VALID,0.0339617,VALID,18.3488,VALID,157,VALID,0.378729,
2004-07-15, 03:30:00,VALID,915.369,VALID,0,VALID,99.8858,VALID,0.0339617,VALID,18.3262,VALID,168,VALID,0.607701,
2004-07-15, 03:31:00,VALID,915.355,VALID,0,VALID,99.9804,VALID,0.0169808,VALID,18.323,VALID,162,VALID,0.85973,
2004-07-15, 03:32:00,VALID,915.326,VALID,0,VALID,100,VALID,0.0169808,VALID,18.3553,VALID,183,VALID,1.09866,
2004-07-15, 03:33:00,VALID,915.312,VALID,0,VALID,100,VALID,0.0169808,VALID,18.4009,VALID,166,VALID,0.673399,
2004-07-15, 03:34:00,VALID,915.287,VALID,0,VALID,100,VALID,0.0339617,VALID,18.3873,VALID,181,VALID,0.76726,
2004-07-15, 03:35:00,VALID,915.262,VALID,0,VALID,100,VALID,0.0509425,VALID,18.3645,VALID,163,VALID,0.725632,
2004-07-15, 03:36:00,VALID,915.257,VALID,0,VALID,100,VALID,0.0339617,VALID,18.3453,VALID,164,VALID,0.635298,